Weather History for KONO - March, 2013

Change the Weather History Date:

Friday, March 29, 2013

  Actual Average Record
Temperature  
Mean Temperature 56 °F 47 °F  
Max Temperature 70 °F 61 °F 82 °F (1966)
Min Temperature 42 °F 33 °F 18 °F (1987)
Degree Days  
Heating Degree Days 9 18  
Month to date heating degree days 600 634  
Since 1 July heating degree days 5114 5264  
Cooling Degree Days 0 0  
Month to date cooling degree days 0 0  
Year to date cooling degree days 0 0  
Growing Degree Days 6 (Base 50)    
Moisture  
Dew Point 38 °F    
Average Humidity 56    
Maximum Humidity 82    
Minimum Humidity 30    
Precipitation  
Precipitation T in 0.03 in 0.50 in (2006)
Month to date precipitation 0.27 0.95  
Year to date precipitation 1.20 2.93  
Sea Level Pressure  
Sea Level Pressure 30.15 in    
Wind  
Wind Speed 5 mph (West)    
Max Wind Speed 10 mph    
Max Gust Speed 17 mph    
Visibility 10 miles    
Events      
T = Trace of Precipitation, MM = Missing Value Source: NWS Daily Summary

Daily Weather History Graph

Daily Weather History Graph

Search for Another Location

Airport or City:

Trip Planner

Search our weather history database for the weather conditions in past years. The results will help you decide how hot, cold, wet, or windy it might be!

Date:

Astronomy

Mar. 29, 2013 Rise Set
Actual Time 7:34 AM MDT 8:11 PM MDT
Civil Twilight 7:05 AM MDT 8:40 PM MDT
Nautical Twilight 6:30 AM MDT 9:15 PM MDT
Astronomical Twilight 5:55 AM MDT 9:51 PM MDT
Moon 11:24 PM MDT (3/29) 8:40 AM MDT (3/29)
Length of Visible Light 13h 35m
Length of Day
12h 37m
Waning Gibbous, 93% of the Moon is Illuminated
Mar 29
Waning Gibbous
Apr 2
Last Quarter
Apr 10
New
Apr 18
First Quarter
Apr 25
Full

Hourly Weather History & Observations

Time (MDT) Temp. Windchill Dew Point Humidity Pressure Visibility Wind Dir Wind Speed Gust Speed Precip Events Conditions
12:53 AM 50.0 °F - 39.0 °F 66% 30.06 in 10.0 mi West 4.6 mph - N/A   Overcast
1:53 AM 48.9 °F - 39.0 °F 69% 30.08 in 10.0 mi WSW 3.5 mph - 0.00 in   Partly Cloudy
2:53 AM 50.0 °F - 37.9 °F 63% 30.08 in 10.0 mi Calm Calm - N/A   Mostly Cloudy
3:53 AM 45.0 °F 41.8 °F 37.0 °F 74% 30.09 in 10.0 mi SW 5.8 mph - N/A   Mostly Cloudy
4:53 AM 46.9 °F - 39.0 °F 74% 30.11 in 10.0 mi WSW 4.6 mph - N/A   Mostly Cloudy
5:53 AM 44.1 °F 40.8 °F 37.9 °F 79% 30.12 in 10.0 mi West 5.8 mph - N/A   Partly Cloudy
6:53 AM 44.1 °F 39.0 °F 37.0 °F 76% 30.14 in 10.0 mi WSW 9.2 mph - N/A   Mostly Cloudy
7:53 AM 43.0 °F 38.8 °F 37.0 °F 80% 30.17 in 10.0 mi WSW 6.9 mph - N/A   Scattered Clouds
8:53 AM 46.9 °F - 39.0 °F 74% 30.20 in 10.0 mi West 5.8 mph - N/A   Clear
9:53 AM 54.0 °F - 41.0 °F 62% 30.20 in 10.0 mi WSW 5.8 mph - N/A   Clear
10:53 AM 57.9 °F - 41.0 °F 53% 30.20 in 9.0 mi Calm Calm - N/A   Clear
11:53 AM 62.1 °F - 42.1 °F 48% 30.20 in 10.0 mi Calm Calm - N/A   Clear
12:53 PM 64.0 °F - 41.0 °F 43% 30.19 in 10.0 mi Variable 6.9 mph - N/A   Clear
1:53 PM 64.9 °F - 39.0 °F 39% 30.18 in 9.0 mi Variable 4.6 mph - N/A   Clear
2:27 PM 66.2 °F - 39.2 °F 37% 30.17 in 10.0 mi Variable 3.5 mph - N/A   Partly Cloudy
2:53 PM 66.9 °F - 37.9 °F 34% 30.15 in 10.0 mi West 9.2 mph - N/A   Scattered Clouds
3:53 PM 66.9 °F - 37.0 °F 33% 30.14 in 10.0 mi North 5.8 mph - N/A   Mostly Cloudy
4:53 PM 68.0 °F - 36.0 °F 31% 30.12 in 10.0 mi NW 5.8 mph - N/A   Scattered Clouds
5:53 PM 68.0 °F - 36.0 °F 31% 30.12 in 10.0 mi NW 5.8 mph - N/A   Mostly Cloudy
6:53 PM 68.0 °F - 37.0 °F 32% 30.12 in 10.0 mi NNW 5.8 mph - N/A   Mostly Cloudy
7:53 PM 64.0 °F - 39.0 °F 40% 30.13 in 10.0 mi Calm Calm - N/A   Scattered Clouds
8:53 PM 61.0 °F - 37.9 °F 42% 30.14 in 10.0 mi NNW 3.5 mph - N/A   Mostly Cloudy
9:53 PM 53.1 °F - 39.0 °F 59% 30.16 in 10.0 mi Calm Calm - N/A   Clear
10:53 PM 48.9 °F - 37.9 °F 66% 30.18 in 10.0 mi WSW 5.8 mph - N/A   Clear
11:53 PM 48.0 °F - 37.0 °F 66% 30.18 in 10.0 mi West 4.6 mph - N/A   Clear